Temp
-10 -10 -10 -10 -10 -10 -10 -9 -9 -9 -9 -9 -9 -8 -8 -8 -8 -8 -8 -8 -9 -9 -9 -9 -9 -10 -10 -10 -11 -11 -11 -11 -11 -11 -11 -11 -11 -10 -10 -10 -10 -10 -10 -9 -9 -9 -9 -9 -9 -9 -9 -8 -8 -8 -8 -7 -7 -6 -6 -5 -4 -4 -3
-10 -10 -10 -11 -11 -10 -10 -10 -10 -10 -10 -9 -9 -9 -9 -9 -9 -9 -9 -9 -9 -10 -10 -10 -10 -10 -11 -11 -11 -12 -12 -12 -12 -12 -12 -12 -11 -11 -11 -11 -10 -10 -10 -10 -10 -10 -10 -10 -9 -9 -9 -9 -9 -9 -8 -8 -7 -7 -6 -6 -5 -4 -4
-11 -11 -11 -11 -11 -11 -11 -11 -11 -11 -11 -10 -10 -10 -10 -10 -10 -10 -10 -10 -10 -10 -10 -11 -11 -11 -11 -12 -12 -12 -12 -12 -13 -13 -13 -12 -12 -12 -11 -11 -11 -10 -10 -10 -10 -10 -10 -10 -10 -10 -10 -9 -9 -9 -8 -8 -8 -7 -7 -6 -6 -5 -4
-11 -11 -12 -12 -12 -12 -12 -12 -12 -12 -12 -11 -11 -11 -11 -11 -11 -11 -11 -11 -11 -11 -11 -12 -12 -12 -12 -12 -13 -13 -13 -13 -13 -13 -13 -13 -13 -12 -12 -11 -11 -11 -11 -11 -11 -11 -11 -11 -11 -11 -10 -10 -10 -9 -9 -9 -9 -8 -8 -7 -6 -5 -5
-12 -12 -12 -12 -12 -12 -12 -12 -12 -13 -12 -12 -12 -12 -12 -12 -12 -12 -12 -12 -12 -12 -12 -13 -13 -13 -13 -13 -13 -14 -14 -14 -14 -14 -14 -14 -13 -13 -12 -12 -12 -12 -12 -12 -12 -12 -12 -12 -11 -11 -11 -10 -10 -10 -10 -9 -9 -9 -9 -8 -7 -6 -6
-12 -12 -13 -13 -13 -13 -13 -13 -13 -13 -13 -13 -13 -13 -13 -13 -13 -13 -13 -13 -13 -13 -13 -13 -13 -13 -13 -14 -14 -14 -14 -14 -15 -15 -15 -15 -14 -13 -13 -12 -12 -12 -12 -13 -13 -12 -12 -12 -12 -11 -11 -10 -11 -12 -11 -11 -11 -10 -9 -9 -9 -8 -7
-13 -13 -13 -13 -13 -13 -14 -14 -14 -14 -14 -14 -13 -13 -13 -13 -14 -14 -14 -14 -14 -14 -14 -14 -14 -14 -14 -14 -14 -14 -14 -15 -15 -15 -15 -15 -14 -13 -13 -13 -13 -13 -13 -13 -13 -13 -13 -12 -12 -12 -11 -12 -12 -12 -12 -13 -13 -12 -11 -11 -10 -9 -8
-13 -14 -14 -14 -14 -14 -14 -14 -15 -15 -15 -14 -14 -14 -14 -14 -14 -14 -14 -15 -15 -15 -15 -15 -15 -15 -15 -14 -14 -15 -15 -15 -15 -15 -15 -14 -14 -13 -13 -13 -13 -13 -13 -14 -14 -14 -14 -13 -13 -13 -12 -13 -14 -14 -14 -14 -14 -14 -13 -12 -11 -11 -10
-14 -14 -14 -15 -15 -15 -15 -15 -15 -15 -15 -15 -15 -15 -15 -15 -15 -15 -15 -15 -15 -15 -15 -15 -15 -15 -15 -15 -15 -15 -15 -15 -15 -14 -14 -14 -14 -13 -13 -14 -14 -14 -14 -14 -14 -14 -14 -14 -14 -14 -14 -15 -15 -16 -16 -15 -15 -14 -14 -13 -12 -11 -11
-15 -15 -15 -15 -15 -15 -16 -16 -16 -16 -16 -16 -15 -15 -15 -15 -15 -15 -15 -15 -15 -15 -15 -15 -15 -15 -15 -15 -14 -14 -14 -14 -14 -14 -14 -14 -14 -14 -14 -14 -15 -15 -15 -15 -15 -15 -15 -15 -15 -15 -15 -16 -16 -16 -16 -16 -16 -15 -15 -14 -13 -12 -11
-15 -16 -16 -16 -16 -16 -16 -17 -17 -17 -16 -16 -16 -15 -15 -15 -15 -15 -15 -15 -15 -15 -15 -15 -15 -15 -14 -14 -14 -14 -14 -14 -14 -14 -14 -14 -14 -14 -14 -15 -15 -15 -15 -15 -15 -16 -16 -16 -16 -16 -16 -16 -16 -16 -17 -17 -17 -16 -16 -15 -15 -13 -13
-16 -16 -16 -16 -16 -17 -17 -17 -17 -17 -17 -16 -16 -16 -16 -16 -15 -15 -15 -15 -15 -15 -15 -15 -15 -15 -14 -14 -14 -14 -14 -14 -14 -14 -14 -14 -14 -15 -15 -15 -15 -15 -16 -16 -16 -16 -16 -16 -16 -17 -17 -17 -17 -18 -18 -18 -18 -17 -17 -16 -16 -16 -15
-16 -16 -16 -17 -17 -17 -17 -17 -18 -18 -17 -17 -17 -16 -16 -16 -16 -15 -15 -15 -15 -15 -15 -15 -15 -15 -15 -15 -15 -15 -15 -15 -15 -15 -15 -15 -15 -15 -15 -16 -16 -16 -16 -16 -17 -17 -17 -17 -17 -17 -17 -18 -18 -19 -19 -19 -18 -18 -18 -18 -17 -17 -16
-17 -17 -17 -17 -17 -17 -18 -18 -18 -18 -18 -17 -17 -16 -16 -16 -16 -16 -16 -16 -16 -16 -15 -15 -15 -15 -15 -15 -15 -15 -15 -15 -15 -15 -16 -16 -16 -16 -16 -16 -16 -16 -17 -17 -17 -17 -18 -18 -18 -18 -18 -18 -19 -19 -19 -19 -19 -18 -18 -18 -17 -17 -16
-17 -17 -17 -17 -17 -18 -18 -18 -18 -18 -18 -17 -17 -16 -16 -16 -16 -16 -16 -16 -16 -16 -16 -16 -16 -16 -15 -15 -15 -16 -16 -16 -16 -16 -16 -16 -16 -16 -16 -17 -17 -17 -17 -17 -18 -18 -18 -18 -18 -18 -18 -19 -19 -20 -20 -20 -19 -19 -18 -18 -17 -17 -16
-17 -17 -17 -18 -18 -18 -18 -18 -19 -18 -18 -18 -17 -17 -16 -16 -17 -17 -17 -17 -16 -16 -16 -16 -16 -16 -16 -16 -16 -16 -16 -16 -16 -16 -16 -16 -17 -17 -17 -17 -17 -18 -18 -18 -18 -18 -18 -18 -18 -18 -18 -19 -19 -20 -20 -19 -19 -19 -19 -18 -18 -17 -16
-18 -18 -18 -18 -18 -19 -19 -19 -19 -19 -18 -18 -17 -17 -17 -17 -17 -17 -17 -17 -16 -16 -16 -16 -16 -17 -17 -17 -17 -17 -17 -16 -16 -16 -16 -16 -17 -17 -17 -18 -18 -18 -18 -18 -18 -18 -18 -19 -19 -19 -19 -19 -20 -20 -20 -19 -20 -19 -19 -20 -20 -19 -16
-19 -19 -19 -19 -19 -19 -19 -19 -19 -19 -19 -18 -18 -17 -16 -16 -16 -16 -16 -16 -16 -16 -16 -17 -17 -17 -17 -17 -17 -17 -17 -16 -16 -16 -16 -16 -17 -17 -18 -18 -18 -18 -18 -18 -18 -18 -19 -19 -19 -20 -20 -20 -20 -20 -20 -20 -20 -20 -20 -20 -20 -19 -18
-19 -19 -19 -19 -19 -19 -19 -19 -19 -19 -19 -19 -18 -17 -16 -16 -16 -16 -16 -16 -16 -16 -16 -17 -17 -17 -17 -17 -17 -17 -16 -16 -16 -16 -16 -17 -17 -18 -19 -19 -19 -19 -19 -19 -19 -19 -19 -20 -20 -21 -21 -21 -21 -21 -21 -21 -21 -21 -21 -21 -21 -21 -20
-20 -19 -19 -19 -19 -19 -19 -19 -19 -19 -19 -19 -18 -16 -16 -16 -16 -16 -16 -16 -16 -17 -17 -17 -17 -17 -17 -18 -17 -17 -17 -16 -16 -16 -17 -17 -18 -18 -19 -19 -19 -19 -19 -19 -19 -20 -20 -21 -22 -22 -22 -22 -22 -22 -22 -22 -22 -22 -22 -22 -22 -22 -21
-20 -20 -20 -19 -19 -19 -19 -19 -19 -19 -19 -19 -18 -17 -16 -17 -17 -17 -17 -17 -17 -17 -17 -17 -18 -18 -18 -18 -18 -17 -16 -16 -16 -17 -17 -18 -18 -19 -19 -20 -19 -20 -20 -20 -21 -21 -22 -23 -23 -24 -24 -24 -23 -23 -23 -23 -23 -23 -23 -23 -23 -23 -22
-20 -20 -20 -20 -20 -20 -19 -19 -19 -19 -19 -19 -18 -17 -17 -17 -17 -17 -17 -17 -17 -18 -18 -18 -18 -18 -18 -19 -18 -17 -16 -16 -17 -18 -18 -18 -19 -20 -20 -20 -20 -20 -21 -21 -22 -22 -23 -23 -24 -24 -25 -25 -24 -24 -24 -24 -24 -24 -23 -23 -23 -23 -22
-20 -20 -20 -20 -19 -19 -19 -19 -19 -19 -19 -19 -18 -18 -17 -17 -18 -18 -18 -18 -18 -18 -19 -19 -19 -19 -19 -19 -19 -18 -18 -18 -19 -19 -19 -19 -20 -20 -20 -20 -21 -21 -22 -22 -23 -23 -23 -24 -24 -25 -25 -25 -25 -25 -25 -25 -25 -25 -24 -24 -24 -24 -23
-20 -20 -20 -19 -19 -19 -19 -18 -18 -18 -19 -19 -19 -18 -17 -17 -18 -19 -18 -19 -19 -19 -19 -19 -19 -20 -20 -20 -20 -20 -19 -19 -20 -20 -20 -20 -20 -20 -21 -21 -22 -22 -23 -23 -24 -24 -24 -25 -25 -25 -26 -26 -26 -26 -26 -26 -26 -26 -25 -25 -25 -25 -24
-20 -19 -19 -19 -19 -19 -19 -19 -18 -18 -19 -19 -19 -18 -18 -18 -19 -19 -19 -19 -19 -19 -20 -20 -20 -21 -21 -21 -21 -21 -21 -21 -21 -21 -21 -21 -21 -21 -21 -22 -22 -23 -24 -24 -24 -24 -25 -26 -26 -26 -26 -26 -26 -26 -26 -26 -26 -26 -26 -25 -25 -25 -25
-20 -19 -19 -19 -19 -19 -19 -19 -18 -18 -19 -19 -19 -19 -19 -19 -19 -19 -19 -19 -20 -20 -20 -20 -21 -21 -22 -22 -22 -22 -22 -22 -22 -22 -22 -22 -22 -22 -22 -22 -23 -24 -24 -25 -25 -25 -26 -26 -27 -27 -27 -27 -27 -27 -27 -26 -26 -26 -26 -25 -25 -25 -25
-20 -20 -19 -19 -19 -19 -19 -19 -19 -19 -19 -19 -19 -19 -19 -19 -20 -20 -20 -20 -20 -20 -20 -21 -21 -22 -22 -23 -23 -23 -22 -22 -22 -22 -22 -22 -22 -23 -23 -24 -24 -25 -25 -25 -26 -26 -27 -27 -27 -27 -27 -27 -27 -27 -27 -27 -27 -26 -26 -25 -25 -25 -25
-21 -20 -20 -20 -19 -19 -19 -19 -19 -19 -19 -19 -19 -19 -19 -20 -20 -20 -20 -21 -21 -21 -21 -21 -22 -22 -23 -23 -23 -23 -23 -23 -23 -23 -23 -23 -24 -24 -25 -25 -26 -26 -26 -26 -26 -27 -27 -27 -27 -27 -27 -27 -27 -27 -27 -27 -27 -26 -26 -25 -25 -25 -25
-21 -21 -21 -20 -20 -20 -20 -19 -19 -19 -18 -19 -19 -19 -19 -20 -20 -20 -20 -21 -21 -21 -21 -21 -22 -23 -23 -24 -24 -24 -24 -24 -24 -24 -25 -25 -25 -26 -26 -26 -27 -27 -27 -27 -27 -27 -27 -27 -27 -27 -27 -27 -27 -27 -27 -27 -26 -26 -26 -25 -25 -25 -26
-21 -21 -21 -21 -21 -20 -20 -20 -19 -19 -18 -18 -19 -19 -19 -19 -19 -20 -20 -21 -21 -21 -22 -22 -22 -23 -23 -23 -23 -23 -24 -24 -25 -25 -26 -26 -27 -27 -27 -27 -27 -27 -27 -28 -28 -28 -27 -27 -27 -27 -27 -27 -27 -27 -27 -27 -26 -26 -26 -25 -25 -26 -26
-21 -21 -21 -21 -21 -20 -20 -19 -19 -19 -19 -19 -19 -19 -19 -19 -19 -20 -20 -21 -21 -22 -22 -22 -23 -23 -23 -23 -23 -24 -24 -24 -25 -26 -26 -27 -27 -27 -27 -28 -28 -28 -28 -28 -28 -28 -28 -27 -27 -28 -28 -28 -27 -27 -27 -27 -27 -27 -26 -26 -26 -26 -27
-20 -20 -20 -20 -20 -19 -19 -19 -19 -19 -19 -19 -19 -19 -19 -18 -18 -19 -20 -21 -21 -22 -22 -22 -23 -23 -23 -23 -24 -24 -24 -25 -25 -26 -26 -27 -27 -28 -28 -28 -28 -28 -28 -28 -28 -28 -28 -28 -28 -28 -28 -28 -27 -27 -27 -27 -27 -27 -27 -26 -26 -27 -27
-21 -20 -20 -20 -19 -19 -19 -19 -19 -19 -19 -19 -19 -19 -19 -19 -19 -19 -21 -21 -21 -22 -22 -22 -23 -23 -23 -23 -24 -24 -24 -25 -25 -26 -26 -27 -27 -27 -27 -27 -27 -27 -28 -28 -28 -28 -28 -28 -28 -28 -28 -28 -27 -27 -27 -27 -27 -27 -27 -27 -27 -27 -27
-21 -21 -20 -20 -20 -19 -19 -20 -19 -19 -19 -19 -19 -20 -20 -20 -20 -21 -21 -22 -22 -22 -22 -22 -22 -23 -23 -23 -24 -24 -25 -25 -26 -26 -26 -27 -27 -27 -27 -27 -27 -28 -28 -28 -28 -28 -28 -28 -28 -28 -28 -28 -28 -27 -27 -27 -28 -28 -27 -27 -27 -27 -27
-22 -22 -21 -21 -21 -20 -20 -20 -20 -20 -20 -20 -20 -20 -20 -20 -21 -21 -22 -22 -22 -22 -22 -22 -22 -23 -23 -23 -24 -24 -25 -25 -26 -26 -27 -27 -27 -27 -27 -27 -27 -28 -28 -28 -28 -28 -28 -28 -28 -28 -28 -28 -28 -28 -28 -28 -28 -28 -28 -28 -28 -27 -27
-22 -22 -22 -22 -22 -21 -21 -21 -21 -21 -21 -21 -21 -20 -20 -21 -22 -22 -22 -22 -22 -22 -22 -22 -22 -23 -23 -23 -24 -24 -25 -25 -26 -26 -27 -27 -27 -27 -27 -27 -27 -28 -28 -28 -28 -28 -28 -28 -28 -28 -28 -28 -28 -28 -28 -28 -28 -28 -28 -28 -28 -28 -28
Height
824 823 822 821 820 819 818 817 816 815 813 812 810 809 808 808 807 806 806 806 806 806 806 806 805 805 805 804 804 803 803 803 802 801 801 800 798 797 796 795 793 789 785 784 784 782 780 780 778 776 775 772 768 766 765 763 761 759 757 755 753 750 749
823 822 821 820 819 818 817 816 815 813 812 811 809 808 807 806 805 804 804 804 804 804 804 804 804 803 803 803 802 802 802 801 801 800 798 798 796 795 794 793 791 789 784 782 782 781 779 779 778 776 774 772 769 765 764 762 760 758 756 754 752 749 747
821 820 820 819 818 817 816 815 814 812 811 810 808 806 805 804 803 802 802 802 802 803 803 802 802 801 801 801 801 800 800 799 798 797 796 795 794 793 791 791 790 787 784 781 780 780 779 778 777 775 774 773 769 766 763 761 758 757 755 753 750 748 746
819 819 818 818 817 816 815 814 812 811 810 809 807 805 803 802 801 801 801 801 801 801 801 801 800 800 800 800 799 798 797 797 796 795 794 792 791 790 789 788 787 786 784 781 779 779 779 778 777 775 773 771 768 765 763 760 757 755 754 752 750 747 744
818 817 817 817 816 815 814 812 811 810 809 807 806 804 803 801 801 800 800 800 799 799 800 799 799 799 799 798 797 796 795 794 793 792 791 790 789 788 787 786 785 783 782 781 779 779 779 778 776 774 772 770 767 764 761 758 756 755 753 751 748 746 743
816 816 815 815 814 813 812 811 810 808 807 806 805 803 802 801 800 799 799 798 798 798 798 798 797 797 797 796 795 793 792 791 791 789 788 787 786 785 785 783 782 782 781 780 779 778 778 777 775 772 771 769 766 764 761 758 754 753 752 750 747 745 742
814 814 813 813 812 811 810 809 808 807 806 805 803 802 801 799 798 798 797 797 796 796 796 796 795 795 794 793 792 791 790 789 788 787 786 785 784 783 782 781 780 780 779 779 778 778 777 776 774 772 770 768 766 764 762 759 755 752 751 750 748 745 742
812 812 811 810 809 808 807 806 806 805 804 803 801 800 798 797 797 796 795 795 794 794 794 793 792 792 791 790 789 788 787 786 786 785 784 783 782 781 780 779 778 778 778 778 778 777 777 775 774 772 770 767 765 763 762 761 760 756 752 750 748 746 743
810 809 809 808 807 806 805 804 803 802 802 800 799 798 796 795 795 794 793 792 791 790 790 789 789 788 788 787 786 785 784 784 783 782 781 780 780 779 778 777 777 777 777 777 777 777 776 775 774 772 770 768 767 766 764 763 762 759 755 751 749 746 744
808 807 806 805 804 803 803 802 801 800 799 798 796 795 794 792 792 791 790 789 788 787 786 786 785 785 784 784 783 782 781 781 780 780 779 779 778 777 776 775 775 776 776 776 776 776 775 774 773 772 770 769 768 767 765 763 762 760 756 752 748 746 744
805 804 804 802 801 801 800 799 799 797 796 795 794 793 791 790 789 788 787 786 785 784 783 783 782 781 781 780 779 778 778 778 778 778 778 777 776 775 774 774 774 775 775 775 774 774 774 774 773 771 770 769 767 766 765 764 763 761 758 754 751 748 745
802 801 801 800 799 798 797 796 796 795 794 792 791 790 788 787 786 784 784 783 782 781 780 780 779 778 778 777 775 775 775 775 776 776 776 776 775 774 773 773 773 773 773 773 773 773 773 773 772 770 769 768 767 766 764 763 762 761 759 757 754 751 748
799 799 798 797 796 795 794 793 793 792 791 789 788 786 785 784 782 781 780 779 779 778 777 777 776 775 774 774 773 773 773 773 773 773 774 774 773 772 772 772 772 772 771 771 771 771 772 772 771 769 768 767 766 765 764 762 761 760 759 757 754 752 749
797 796 795 794 793 792 791 791 790 789 788 786 785 783 782 780 779 778 777 776 776 775 775 774 773 772 772 772 772 771 771 770 771 771 771 771 771 770 770 770 770 770 770 770 770 770 770 770 769 769 767 766 765 764 763 762 760 759 758 756 754 752 749
794 793 793 792 791 790 788 788 787 786 785 783 782 780 779 778 776 775 774 774 773 773 772 772 771 770 770 770 769 769 769 769 769 769 769 769 769 769 768 768 768 768 769 769 768 768 768 768 768 767 766 765 764 763 762 761 760 759 757 755 752 750 748
792 791 790 789 788 787 786 785 784 784 782 780 779 778 776 775 774 773 772 771 771 770 770 769 769 768 768 768 768 767 767 767 767 767 766 766 766 766 766 766 767 767 768 768 767 767 767 767 767 766 765 765 763 760 759 759 759 758 756 754 752 750 747
790 788 788 786 785 785 783 782 781 781 779 778 776 775 774 773 771 770 770 769 768 768 768 767 767 767 766 766 766 766 766 765 765 764 764 764 764 764 764 765 765 765 766 766 766 766 766 765 765 764 763 763 761 759 757 757 756 755 755 754 752 749 747
787 786 785 784 783 782 781 779 778 778 776 775 773 773 771 770 768 767 767 767 766 766 766 766 766 765 765 764 764 764 764 763 763 762 762 761 761 762 762 763 763 764 764 764 764 763 763 762 761 761 760 760 759 757 756 755 754 753 753 752 751 749 747
784 783 782 781 780 780 779 777 775 775 774 772 771 770 769 767 765 764 763 764 764 764 764 765 765 765 764 764 763 763 762 761 760 760 759 759 760 760 761 761 762 762 762 762 762 761 760 760 759 758 757 757 756 755 754 753 752 751 751 750 749 748 747
782 781 779 779 778 777 776 775 773 772 771 770 769 768 767 765 764 763 762 762 763 763 763 764 764 763 763 763 762 761 760 759 758 757 757 757 758 758 759 760 760 761 760 760 759 759 758 757 756 756 755 754 754 753 751 750 750 749 748 747 747 746 746
779 778 777 776 775 774 773 772 771 770 769 768 768 767 765 764 763 763 762 762 762 763 763 762 762 762 762 762 762 760 757 755 755 755 755 756 756 757 758 759 759 759 758 758 757 757 756 756 755 754 753 752 752 751 750 749 748 747 746 746 745 745 744
777 776 774 773 772 771 770 769 768 768 767 766 766 766 764 763 763 762 762 761 762 762 762 761 761 761 762 762 761 758 755 754 754 754 755 756 756 756 757 757 757 757 757 756 756 755 755 755 754 753 752 751 751 750 749 748 747 746 745 745 744 744 743
774 773 771 770 769 768 768 767 766 766 765 765 765 764 764 763 762 761 761 761 761 761 761 761 761 761 761 761 761 759 757 756 755 756 756 756 756 756 756 756 756 756 755 755 755 754 754 753 753 752 751 750 750 749 748 748 747 746 745 744 744 743 743
771 770 769 767 766 766 766 765 765 764 764 764 763 763 763 762 761 760 761 761 761 761 761 760 760 760 760 760 760 758 757 757 756 755 755 755 755 755 755 755 755 754 754 754 754 753 752 752 751 751 750 750 749 748 748 747 747 746 746 745 744 744 743
769 768 767 766 765 764 764 764 763 762 762 762 762 762 762 761 759 759 760 760 760 760 760 760 759 759 758 758 758 757 757 756 756 755 755 755 754 754 754 754 753 753 753 753 752 752 751 751 750 750 749 749 748 748 747 747 746 746 746 745 745 744 743
767 766 765 764 763 763 762 762 762 761 761 761 760 760 760 759 758 759 759 759 759 759 758 758 758 757 757 756 756 756 755 755 755 754 754 754 754 753 753 753 752 752 752 751 751 751 751 750 750 749 749 748 748 747 747 746 746 745 745 745 745 744 744
765 764 763 762 761 761 761 760 760 759 759 759 759 759 759 758 757 757 757 757 757 757 757 756 756 756 755 755 755 754 754 754 753 753 753 752 752 752 751 751 751 751 751 750 750 750 750 749 749 749 749 748 748 747 746 746 746 745 745 745 744 744 744
763 762 762 761 760 760 759 758 758 757 757 757 757 757 757 756 756 756 756 756 756 756 755 755 755 754 754 754 754 753 753 752 752 752 751 751 751 751 750 750 750 750 750 749 749 749 749 749 749 749 748 748 747 747 746 746 745 745 745 745 744 744 744
760 760 760 759 758 758 757 757 756 756 756 755 755 755 755 755 754 754 754 754 754 754 754 754 753 753 753 753 753 753 752 751 751 751 751 750 750 750 750 750 749 749 749 749 749 749 749 749 749 748 748 748 747 747 746 746 746 745 745 745 744 744 744
758 757 757 757 756 755 755 754 754 754 754 754 753 754 753 752 752 752 752 752 753 753 753 752 752 752 752 752 752 752 751 751 750 750 750 750 750 749 749 749 749 749 749 749 749 749 749 749 749 748 748 748 747 747 747 746 746 746 745 745 745 744 744
755 755 755 754 753 752 752 752 751 752 752 752 752 751 751 750 750 749 749 750 751 751 751 751 751 751 751 751 751 751 751 750 750 750 750 749 749 749 749 749 749 748 749 749 749 749 749 748 748 748 748 748 747 747 747 746 746 746 745 745 745 745 745
753 752 752 751 751 750 750 749 748 749 749 749 749 749 748 747 747 746 747 748 749 750 750 750 750 750 749 749 750 750 750 749 749 749 749 749 749 749 748 748 748 748 748 748 748 748 748 748 748 748 748 748 747 747 747 747 746 746 746 746 746 745 745
750 749 748 748 748 748 747 746 746 746 747 747 747 747 745 745 744 744 745 746 748 748 749 749 749 748 748 748 748 748 748 748 748 748 748 748 748 748 748 748 748 748 748 748 748 748 748 748 748 748 748 748 748 747 747 747 746 746 746 746 746 746 746
747 747 746 745 745 745 745 745 744 744 745 745 745 745 744 744 744 744 745 746 747 747 747 747 747 747 747 747 747 747 747 747 747 748 748 748 747 747 747 747 748 748 748 748 748 748 748 748 748 748 748 748 748 747 747 747 747 746 746 746 746 746 746
744 744 743 743 743 743 743 743 743 743 743 743 743 744 744 743 743 743 744 745 745 745 746 746 746 745 745 745 745 745 745 745 746 747 747 747 747 747 747 747 747 747 748 748 748 748 748 748 748 748 748 748 748 748 747 747 747 746 746 746 746 746 746
741 741 741 741 740 740 740 740 740 741 741 741 741 742 743 742 741 741 742 742 743 743 744 744 744 744 743 743 743 743 743 744 744 745 746 746 746 746 746 746 746 747 747 747 747 747 747 748 748 748 748 748 748 748 747 747 747 747 746 746 746 746 746
Wind_Speed
17 17 18 19 20 21 21 21 21 21 20 20 19 20 22 23 22 21 19 18 17 15 14 14 14 13 12 11 12 14 15 16 17 17 17 18 18 18 18 19 18 13 13 17 19 20 21 21 22 22 23 27 31 31 31 31 31 31 30 30 30 32 30
16 17 17 18 19 20 20 20 21 20 21 21 21 20 20 20 18 17 16 16 16 16 16 16 16 14 13 13 14 17 18 18 19 18 19 19 19 20 19 18 18 16 14 16 19 20 19 19 20 21 22 24 28 32 32 31 31 31 31 31 30 29 27
16 16 17 18 18 18 19 19 19 19 19 20 21 20 19 17 14 14 14 15 16 17 17 17 17 16 16 17 18 20 20 21 22 21 21 21 20 20 20 18 18 18 15 15 17 17 17 19 21 22 22 24 28 31 30 29 28 29 30 30 30 29 28
16 16 17 18 18 18 18 18 18 18 18 19 19 18 16 15 15 15 15 16 16 17 17 18 18 19 19 20 21 22 22 23 23 23 22 22 21 20 20 19 17 16 14 14 15 15 17 21 22 22 23 25 26 26 25 24 25 27 28 27 27 26 23
16 17 18 19 19 19 19 18 17 17 17 19 20 19 17 15 15 15 15 16 16 16 17 18 19 20 21 21 22 23 24 23 23 24 23 23 22 21 19 17 14 15 17 17 17 17 18 20 21 22 23 23 20 20 21 23 25 26 26 25 24 20 13
17 18 19 20 20 19 19 18 18 18 18 19 20 19 19 18 16 16 15 14 14 15 16 18 19 21 21 21 22 23 23 23 23 23 22 23 23 21 20 19 19 20 19 17 16 17 17 18 20 21 20 17 18 20 20 22 26 27 25 23 23 22 15
19 20 20 21 20 19 19 19 19 19 20 21 21 19 19 17 15 14 14 15 17 18 20 21 22 23 22 22 22 23 24 23 23 22 21 21 21 20 19 17 17 16 14 13 14 15 16 17 18 20 18 17 21 22 19 22 26 27 27 24 22 24 21
20 21 20 21 20 20 20 20 21 22 23 23 22 20 20 19 19 20 21 22 24 24 24 24 24 24 23 23 24 24 24 23 22 21 20 19 19 20 18 13 11 10 9 11 13 14 15 16 17 19 19 18 22 22 20 23 24 23 24 24 22 20 19
21 20 21 21 21 21 21 22 24 23 22 22 22 22 23 24 25 26 26 26 26 25 25 24 24 24 24 23 23 22 22 21 21 21 21 19 19 18 14 8 5 5 6 9 12 12 13 13 14 17 16 15 17 17 20 24 23 20 21 23 22 16 12
21 21 22 22 22 22 22 23 23 22 21 22 22 23 25 25 25 24 23 23 23 23 23 22 22 23 23 23 23 23 22 21 20 19 18 19 20 16 9 5 5 6 7 9 10 10 10 10 11 14 14 15 17 20 23 24 20 17 19 21 19 13 9
21 21 22 23 23 23 23 24 24 22 22 22 23 24 25 25 24 23 23 23 23 23 24 23 23 24 24 24 25 25 23 20 17 16 16 19 20 13 6 4 6 7 8 8 8 8 9 9 10 13 14 15 18 21 21 19 15 14 16 16 13 8 9
21 21 22 23 23 23 23 24 24 22 22 23 24 24 25 25 24 24 23 23 23 24 24 24 23 22 22 22 21 20 18 16 15 17 18 17 15 10 6 6 6 7 6 5 7 8 8 9 11 12 11 12 15 17 17 16 14 14 14 14 12 9 11
21 22 22 22 21 22 23 25 24 22 22 23 24 24 24 24 24 23 23 22 22 22 22 23 22 20 19 19 18 15 14 15 17 19 18 15 13 13 11 8 7 6 5 4 6 8 8 9 10 9 9 10 12 14 15 14 15 17 16 16 15 14 16
21 21 21 20 20 22 24 25 25 23 22 23 23 23 23 23 22 21 21 21 20 20 21 22 22 20 19 20 19 16 16 17 18 18 17 16 15 15 12 10 9 9 8 6 6 7 8 9 9 9 9 11 13 14 13 14 16 18 19 19 20 20 20
21 20 20 19 21 23 24 25 24 22 22 23 23 22 21 21 20 20 19 19 19 20 20 19 16 16 17 18 17 15 15 15 15 15 14 15 15 14 13 12 11 10 8 7 6 7 8 9 11 10 9 10 12 14 15 15 16 17 18 19 21 21 18
20 20 20 21 22 22 23 24 22 21 22 23 22 21 21 20 19 18 18 19 19 19 17 15 14 16 16 14 13 13 12 13 14 14 14 15 14 14 14 12 10 7 5 4 3 4 5 6 7 8 8 7 9 14 18 18 18 19 18 17 17 17 14
20 21 22 22 21 21 22 23 23 23 22 23 21 20 20 20 19 18 17 18 18 17 15 15 15 14 14 12 11 12 12 13 15 16 17 16 16 15 14 12 11 11 10 8 7 7 7 8 9 12 14 13 13 17 22 21 20 19 18 15 11 11 12
21 21 21 21 20 20 20 23 25 24 23 22 21 20 20 20 19 19 17 16 16 14 12 12 11 10 11 12 10 10 13 15 15 15 15 16 17 16 14 13 12 12 11 10 11 12 14 15 17 20 21 20 19 22 23 22 20 18 17 15 11 10 11
20 20 20 19 19 19 20 24 26 25 22 20 19 19 18 15 14 16 18 16 13 10 7 8 8 7 8 9 9 11 13 14 16 16 14 13 15 16 14 12 11 10 9 9 10 12 14 16 17 18 19 19 19 20 21 20 18 16 15 14 14 12 9
20 21 20 20 21 23 24 25 25 23 20 18 17 17 14 9 8 8 9 10 8 6 6 5 5 4 4 7 11 13 16 17 16 15 11 9 11 13 12 10 8 7 8 10 10 11 11 11 11 12 13 14 14 15 16 15 14 13 12 12 13 12 8
21 22 23 24 25 25 24 23 22 21 19 16 15 15 11 7 6 5 1 3 4 4 3 2 3 3 4 9 13 15 17 16 12 10 8 7 8 9 9 6 5 6 8 9 9 8 6 5 5 7 9 11 11 10 11 11 10 9 9 10 11 10 7
23 23 24 25 24 22 20 18 18 18 16 14 14 13 9 5 3 2 2 3 2 1 1 2 3 4 6 9 13 15 11 3 3 2 2 4 7 6 4 4 6 7 8 7 6 4 4 5 5 6 8 11 10 8 7 6 6 6 6 7 8 8 6
22 22 22 22 20 18 17 16 16 15 14 12 11 11 9 4 2 2 3 3 3 1 1 4 6 8 8 7 9 11 7 5 9 8 6 7 7 3 3 6 7 7 7 5 4 5 6 7 7 8 9 10 9 5 3 2 2 2 1 1 2 4 5
19 18 19 19 18 17 16 15 15 13 12 11 10 10 8 3 3 3 3 3 2 3 6 8 9 9 8 5 5 5 4 4 7 6 4 3 2 4 6 6 6 6 6 4 4 5 6 7 7 8 9 8 6 3 1 1 2 3 4 4 4 2 1
18 18 18 18 17 17 16 15 14 13 11 10 11 10 6 2 3 4 5 6 8 10 10 9 7 8 9 9 7 7 7 5 3 3 4 5 6 7 7 7 6 5 4 4 5 5 5 6 7 7 5 4 3 3 2 1 1 2 2 3 5 6 5
18 18 18 17 17 17 16 15 14 13 12 11 12 12 9 6 7 9 9 10 11 12 11 10 9 10 11 11 10 11 10 8 8 8 8 8 9 9 8 7 6 5 4 5 5 5 6 6 6 4 2 1 2 3 3 2 2 0 1 1 2 4 5
17 17 16 16 16 15 15 15 14 13 13 12 12 11 9 10 11 11 10 10 10 9 8 8 8 9 10 9 9 10 10 9 9 9 10 10 10 9 7 5 5 5 5 5 5 5 5 4 3 1 1 1 2 3 2 1 2 0 1 1 2 2 3
18 18 17 16 15 14 14 15 14 13 13 12 11 9 9 9 11 11 10 9 8 6 5 6 6 6 7 7 8 7 8 9 9 8 9 8 7 5 3 2 2 4 4 4 3 3 2 0 1 1 1 2 3 2 1 1 1 1 2 2 2 2 2
21 20 19 18 17 16 16 16 15 13 11 10 9 10 11 12 13 14 12 10 9 7 4 4 4 4 5 6 6 6 7 8 7 7 6 4 3 3 2 2 3 4 4 4 3 3 2 2 2 2 2 2 2 3 3 1 2 3 3 3 3 3 4
20 21 20 19 19 18 18 17 16 14 12 10 9 11 13 14 15 16 15 13 11 8 5 3 3 4 5 6 7 7 7 7 6 5 4 2 3 3 3 3 4 4 4 5 4 4 3 3 1 1 1 0 1 3 4 4 3 3 3 3 3 4 5
19 20 19 20 22 22 21 20 19 17 14 13 14 15 16 16 16 16 16 15 12 9 5 3 3 4 6 7 7 7 7 7 6 5 5 4 3 3 4 4 4 4 4 4 4 4 4 3 2 1 1 1 2 3 4 4 4 4 4 4 4 5 5
18 19 19 20 21 21 19 18 18 17 14 13 14 14 14 16 16 16 18 15 12 9 6 5 4 5 6 7 7 7 8 7 7 7 6 5 4 4 5 5 5 6 6 5 4 4 3 3 2 2 1 2 2 3 3 3 4 4 4 4 5 6 6
16 17 18 18 18 17 15 13 11 11 11 11 10 6 7 10 9 15 18 14 11 9 7 7 7 6 6 7 7 8 8 8 7 8 7 5 6 6 6 5 5 6 6 5 4 3 3 3 3 3 3 2 2 3 3 3 3 3 3 3 4 6 7
15 14 14 15 17 16 14 13 10 8 8 9 7 4 5 4 6 12 12 11 11 10 8 8 9 8 7 8 8 8 9 9 9 8 7 7 8 8 6 5 6 6 5 4 3 3 3 3 4 4 3 1 2 3 3 2 3 2 3 4 4 5 6
18 14 12 12 14 15 15 16 16 14 12 13 12 9 7 6 10 11 11 11 12 12 11 11 11 10 9 9 9 9 10 10 10 10 9 10 10 8 6 7 7 6 5 5 4 3 3 3 3 4 4 3 2 2 2 2 2 3 3 4 4 5 6
19 16 13 12 13 16 18 18 19 19 17 17 16 13 11 11 14 15 15 15 14 14 14 14 14 13 11 10 10 10 10 11 11 11 10 11 10 9 8 8 8 6 6 5 5 4 3 3 4 4 5 4 3 2 2 2 3 4 6 6 5 6 7
Wind_Direction
311 313 315 315 314 312 310 307 306 306 306 301 290 282 278 273 269 268 269 275 278 273 273 277 277 276 275 276 283 293 298 299 299 301 300 299 297 293 288 286 283 281 287 292 293 297 303 306 308 310 310 309 310 312 315 316 314 315 316 317 315 308 303
309 310 312 312 311 310 308 306 305 303 304 304 301 294 285 276 271 272 275 277 279 278 277 277 276 274 274 280 290 294 294 296 297 298 296 294 293 289 285 282 281 281 285 291 294 298 303 309 312 311 310 309 309 310 312 313 312 312 311 313 317 310 302
306 307 311 310 309 309 308 306 304 302 301 301 302 301 296 288 282 280 279 277 277 276 276 277 277 278 281 286 289 290 291 294 295 295 294 292 288 284 282 281 279 280 285 293 298 304 311 314 311 308 308 307 306 306 308 309 310 313 311 310 314 309 298
304 305 307 307 305 305 305 305 304 301 300 302 305 305 300 294 289 284 280 277 276 275 275 279 281 281 283 286 288 289 292 294 295 294 293 289 284 279 277 277 274 277 290 301 306 310 312 309 306 306 307 305 303 302 305 312 317 318 315 313 315 311 294
302 303 303 301 299 298 299 300 301 301 301 301 302 303 300 294 288 284 281 278 277 277 278 280 281 282 284 286 287 289 291 292 292 292 290 286 282 277 273 273 278 288 295 298 300 303 305 303 302 303 304 304 312 319 319 320 323 321 320 318 318 319 305
299 299 298 296 294 293 294 296 296 299 301 299 297 295 294 292 288 285 282 280 280 280 281 281 282 283 284 284 285 286 287 288 289 289 288 285 280 274 269 271 277 284 287 289 294 298 301 302 302 304 308 313 329 339 338 335 332 327 328 328 323 323 323
296 295 294 293 291 290 291 294 295 295 295 295 293 290 287 286 284 280 278 278 280 280 280 280 280 280 280 280 281 281 282 283 284 284 283 283 281 273 266 266 270 277 286 295 299 302 305 308 310 311 315 323 331 336 342 350 346 333 330 335 330 324 322
294 293 292 290 288 287 289 290 292 293 292 288 286 285 285 283 282 284 285 284 283 281 279 278 277 277 277 277 277 276 276 276 276 275 273 275 277 273 266 263 266 276 294 305 306 306 309 314 317 315 317 331 341 342 339 344 345 331 324 329 326 320 321
290 290 291 289 286 284 286 288 289 289 288 285 283 282 283 281 281 283 284 283 280 278 276 275 276 276 275 274 274 272 271 271 270 269 267 269 275 271 260 251 261 282 301 303 300 301 306 313 317 315 320 340 351 345 332 334 338 328 320 325 324 316 321
286 286 288 288 286 284 285 287 288 286 284 283 282 282 282 280 278 277 277 278 277 275 274 272 273 275 273 272 273 271 269 268 269 270 270 279 286 277 253 243 270 282 287 287 287 294 306 315 314 311 320 335 333 323 323 330 334 328 323 330 332 321 324
285 286 288 287 285 286 287 288 287 286 285 283 283 283 284 282 281 279 277 276 276 276 275 273 272 274 273 272 270 269 267 264 264 269 276 286 287 273 246 255 268 266 267 273 284 293 303 307 304 305 311 318 315 313 320 329 331 329 329 333 338 325 325
286 288 288 286 282 282 285 287 287 286 287 288 286 285 284 283 281 278 275 272 271 272 271 270 270 270 271 273 273 271 271 269 269 275 280 281 275 262 262 271 263 259 259 267 286 293 298 301 301 303 306 307 310 312 319 329 333 335 333 328 327 320 319
287 287 286 283 281 283 286 286 286 287 289 290 288 287 286 284 282 279 276 274 271 270 271 272 274 275 278 285 288 286 283 278 277 281 281 274 262 262 272 271 256 253 254 262 281 282 282 287 294 306 306 300 306 309 312 324 332 335 332 324 317 313 312
288 286 285 283 284 286 288 286 285 287 290 290 290 290 288 287 286 285 283 280 276 276 277 274 273 278 283 286 287 284 279 277 278 279 276 266 259 263 269 267 258 256 258 266 276 270 265 269 279 293 293 289 296 301 303 313 324 329 329 319 312 310 306
289 287 285 285 286 287 286 285 286 288 291 293 292 291 290 290 290 290 287 283 280 277 274 271 273 279 281 281 279 276 274 275 276 275 269 261 259 264 267 264 260 259 265 272 270 262 266 273 275 276 280 290 300 299 293 299 312 321 322 315 313 314 306
287 286 286 287 286 285 283 283 286 291 293 294 293 292 292 291 289 287 282 279 276 271 268 272 281 282 277 274 270 265 266 270 269 266 263 260 260 262 260 254 243 236 241 254 257 260 273 282 274 265 270 292 306 298 291 294 303 310 313 313 311 311 304
287 286 287 286 284 283 281 284 291 296 295 294 293 292 291 289 282 277 275 277 274 267 268 276 280 278 276 272 266 263 267 270 269 264 260 258 257 254 247 241 233 229 231 239 250 260 262 260 253 250 256 266 279 285 287 294 302 304 305 309 305 297 298
288 287 286 283 281 280 279 285 294 298 296 293 293 292 292 291 281 267 262 268 266 259 267 277 273 272 277 279 282 281 276 275 276 276 268 258 252 244 233 227 228 232 242 251 260 266 264 261 259 259 263 269 273 278 282 289 296 296 294 293 279 274 291
286 286 284 280 277 277 279 286 295 299 297 292 292 297 301 301 290 268 252 248 249 251 269 277 267 267 275 285 297 293 283 281 283 284 278 261 246 237 224 220 225 237 256 272 281 283 277 271 269 270 272 273 274 277 280 283 285 283 280 274 263 267 288
282 282 280 276 274 278 283 289 294 297 297 291 291 302 309 307 305 288 248 230 230 243 261 258 246 253 284 317 319 301 288 287 284 279 275 256 238 229 218 216 233 259 283 297 302 301 294 288 284 282 281 280 278 277 277 278 278 273 265 257 254 260 272
281 281 278 276 278 282 286 290 290 291 295 290 287 301 312 302 302 313 256 207 222 239 261 249 226 256 313 340 338 319 296 282 267 258 257 239 219 211 207 220 265 295 308 313 313 310 303 293 288 287 289 290 288 283 276 275 275 266 255 251 249 251 254
282 282 281 280 282 283 287 291 286 285 293 291 285 297 309 298 289 289 214 184 187 208 340 316 269 296 327 336 338 337 332 325 151 164 219 175 160 168 205 274 308 317 318 315 307 295 267 246 251 270 284 289 289 285 280 278 278 272 260 252 247 245 247
283 283 282 282 283 282 287 291 284 279 286 286 281 292 300 277 200 211 212 177 140 116 332 302 293 304 319 331 340 342 353 91 109 99 103 133 146 169 294 313 321 319 312 294 265 251 244 245 254 263 272 283 286 281 279 293 319 339 332 280 259 257 256
280 279 277 279 281 282 285 288 282 274 276 274 268 282 295 264 157 171 219 225 257 295 299 303 306 304 300 310 333 316 274 172 135 118 123 163 233 302 319 324 317 304 298 276 241 234 239 254 269 271 271 281 284 258 185 102 74 63 56 58 58 45 351
281 278 275 276 279 281 283 285 280 269 264 262 261 270 279 234 185 220 258 278 292 299 300 296 289 282 278 274 271 268 260 241 226 252 280 293 307 315 315 311 303 288 269 239 225 225 240 263 278 280 277 280 278 259 241 194 120 77 52 54 60 57 50
281 279 277 275 277 280 283 283 278 267 261 261 264 265 261 253 256 265 275 284 288 290 290 283 270 270 276 277 275 274 274 273 276 284 292 299 306 308 305 296 280 255 227 215 219 230 248 263 273 281 287 291 301 301 289 243 214 313 344 355 25 36 38
278 278 277 276 276 279 282 281 274 266 261 261 262 261 257 261 271 279 283 286 286 285 288 291 287 282 283 285 285 284 283 281 282 286 291 295 299 302 301 287 257 232 217 214 225 237 246 254 261 272 2 320 295 299 299 237 213 254 23 23 0 356 11
273 275 276 278 279 282 285 284 277 267 259 255 250 248 250 257 267 274 276 275 277 284 294 302 301 294 291 294 296 293 287 285 285 283 284 289 293 295 295 267 223 211 207 208 216 219 207 154 49 89 57 357 327 322 323 232 179 124 64 49 34 14 19
269 269 271 273 274 274 274 276 277 271 260 251 243 246 252 256 260 263 263 256 253 257 276 304 312 305 294 291 289 280 273 276 285 290 286 278 275 271 228 188 194 194 180 169 167 161 138 103 72 67 52 8 5 26 24 49 110 91 60 53 55 47 42
267 267 267 268 268 266 264 265 267 267 258 250 256 266 266 261 255 251 248 243 237 236 251 288 307 296 276 271 271 265 256 253 264 281 279 241 221 223 193 185 197 191 174 169 169 158 141 129 117 86 77 80 51 46 37 44 74 80 64 68 80 71 50
268 266 264 264 264 267 269 267 262 259 255 258 273 279 274 266 252 234 227 229 227 224 239 263 273 272 264 260 264 262 250 244 247 255 250 232 217 201 186 193 193 167 151 150 152 150 144 142 154 164 162 146 95 62 39 36 61 75 68 61 66 67 54
276 270 265 263 261 264 276 277 261 246 245 260 274 277 276 276 261 226 212 216 218 220 233 242 243 259 261 255 257 254 246 246 246 237 231 225 207 188 193 210 197 164 150 144 143 157 168 162 154 136 112 112 104 80 48 40 59 68 60 52 50 51 48
283 277 270 266 259 258 274 286 264 235 234 253 269 284 304 297 252 203 198 208 214 218 231 234 235 249 257 253 254 250 244 245 242 230 222 215 208 209 212 208 186 169 164 161 161 177 187 176 156 121 85 76 85 79 59 42 45 50 60 74 65 46 40
288 284 274 268 262 257 261 269 264 246 232 232 242 285 320 291 208 190 198 215 221 225 231 232 237 248 254 253 252 246 241 242 234 222 212 204 210 222 220 192 176 172 168 161 164 182 190 182 170 149 127 118 107 95 73 38 32 50 74 82 72 53 44
290 291 282 272 266 260 256 257 258 255 244 234 238 260 271 224 198 203 219 226 229 235 240 239 244 250 254 255 251 243 240 240 232 221 213 211 217 224 209 186 181 182 177 171 180 196 195 185 175 157 140 131 122 124 116 62 42 47 57 67 73 63 52
284 289 287 278 268 262 261 261 260 257 251 245 244 251 249 222 207 212 224 232 241 251 255 254 253 252 251 252 251 243 239 237 231 222 216 218 225 224 203 191 193 196 190 185 193 208 203 186 176 159 140 121 94 79 77 68 62 57 54 59 69 62 48